Time,TemperatureF,DewpointF,PressureIn,WindDirection,WindDirectionDegrees,WindSpeedMPH,WindSpeedGustMPH,Humidity,HourlyPrecipIn,Conditions,Clouds,dailyrainin,SolarRadiationWatts/m^2,SoftwareType,DateUTC
2013-02-21 00:04:00,43.0,41.3,30.24,ESE,116,0.0,3.0,94,0.00,,,0.00,0,WeatherHawk,2013-02-21 08:04:00,
2013-02-21 00:09:00,43.4,41.8,30.24,ENE,62,2.0,3.0,94,0.00,,,0.00,0,WeatherHawk,2013-02-21 08:09:00,
2013-02-21 00:14:00,43.0,41.2,30.24,ENE,68,0.0,3.0,93,0.00,,,0.00,0,WeatherHawk,2013-02-21 08:14:00,
2013-02-21 00:19:00,43.4,41.8,30.24,NNW,345,0.0,3.0,94,0.00,,,0.00,0,WeatherHawk,2013-02-21 08:19:00,
2013-02-21 00:24:00,44.4,42.5,30.24,NNW,328,4.0,6.0,93,0.00,,,0.00,0,WeatherHawk,2013-02-21 08:24:00,
2013-02-21 00:29:00,43.7,41.5,30.24,NNE,25,2.0,6.0,92,0.00,,,0.00,0,WeatherHawk,2013-02-21 08:29:00,
2013-02-21 00:34:00,43.5,41.3,30.23,NNW,344,2.0,4.0,92,0.00,,,0.00,0,WeatherHawk,2013-02-21 08:34:00,
2013-02-21 00:39:00,44.1,42.2,30.24,South,181,1.0,4.0,93,0.00,,,0.00,0,WeatherHawk,2013-02-21 08:39:00,
2013-02-21 00:44:00,43.9,42.1,30.23,South,179,2.0,6.0,93,0.00,,,0.00,0,WeatherHawk,2013-02-21 08:44:00,
2013-02-21 00:49:00,42.7,40.3,30.24,SE,145,0.0,6.0,91,0.00,,,0.00,0,WeatherHawk,2013-02-21 08:49:00,
2013-02-21 00:54:00,44.2,42.3,30.24,NNW,332,6.0,6.0,93,0.00,,,0.00,1,WeatherHawk,2013-02-21 08:54:00,
2013-02-21 00:59:00,43.3,41.1,30.24,ENE,61,0.0,6.0,92,0.00,,,0.00,0,WeatherHawk,2013-02-21 08:59:00,
2013-02-21 01:04:00,43.3,41.7,30.24,ENE,58,0.0,6.0,94,0.00,,,0.00,0,WeatherHawk,2013-02-21 09:04:00,
2013-02-21 01:09:00,43.8,42.1,30.24,SE,135,1.0,5.0,94,0.00,,,0.00,0,WeatherHawk,2013-02-21 09:09:00,
2013-02-21 01:15:00,43.3,41.7,30.24,NE,50,0.0,4.0,94,0.00,,,0.00,0,WeatherHawk,2013-02-21 09:15:00,
2013-02-21 01:20:00,43.0,41.1,30.25,East,88,0.0,4.0,93,0.00,,,0.00,1,WeatherHawk,2013-02-21 09:20:00,
2013-02-21 01:25:00,44.1,42.2,30.24,SSE,166,2.0,4.0,93,0.00,,,0.00,0,WeatherHawk,2013-02-21 09:25:00,
2013-02-21 01:30:00,43.8,41.6,30.24,ENE,63,2.0,5.0,92,0.00,,,0.00,0,WeatherHawk,2013-02-21 09:30:00,
2013-02-21 01:35:00,44.4,41.9,30.24,SSE,161,2.0,5.0,91,0.00,,,0.00,0,WeatherHawk,2013-02-21 09:35:00,
2013-02-21 01:40:00,43.6,41.2,30.24,SE,133,4.0,5.0,91,0.00,,,0.00,0,WeatherHawk,2013-02-21 09:40:00,
2013-02-21 01:45:00,44.2,41.4,30.24,NNE,19,3.0,5.0,90,0.00,,,0.00,0,WeatherHawk,2013-02-21 09:45:00,
2013-02-21 01:50:00,44.5,41.4,30.24,North,5,3.0,5.0,89,0.00,,,0.00,0,WeatherHawk,2013-02-21 09:50:00,
2013-02-21 01:55:00,43.9,40.9,30.24,NNE,17,2.0,4.0,89,0.00,,,0.00,0,WeatherHawk,2013-02-21 09:55:00,
2013-02-21 02:00:00,43.9,39.7,30.24,ESE,111,2.0,4.0,85,0.00,,,0.00,1,WeatherHawk,2013-02-21 10:00:00,
2013-02-21 02:05:00,44.2,40.5,30.24,ESE,118,3.0,4.0,87,0.00,,,0.00,0,WeatherHawk,2013-02-21 10:05:00,
2013-02-21 02:10:00,43.8,40.4,30.24,WSW,252,0.0,5.0,88,0.00,,,0.00,1,WeatherHawk,2013-02-21 10:10:00,
2013-02-21 02:15:00,44.5,40.6,30.24,ENE,72,5.0,5.0,86,0.00,,,0.00,0,WeatherHawk,2013-02-21 10:15:00,
2013-02-21 02:21:00,44.5,40.6,30.24,NNE,33,5.0,6.0,86,0.00,,,0.00,0,WeatherHawk,2013-02-21 10:21:00,
2013-02-21 02:26:00,44.5,39.9,30.24,SSW,210,6.0,8.0,84,0.00,,,0.00,0,WeatherHawk,2013-02-21 10:26:00,
2013-02-21 02:31:00,43.9,39.4,30.23,South,169,2.0,8.0,84,0.00,,,0.00,0,WeatherHawk,2013-02-21 10:31:00,
2013-02-21 02:36:00,44.4,39.5,30.23,SSE,149,0.0,6.0,83,0.00,,,0.00,0,WeatherHawk,2013-02-21 10:36:00,
2013-02-21 02:41:00,44.7,40.1,30.24,ESE,120,2.0,6.0,84,0.00,,,0.00,0,WeatherHawk,2013-02-21 10:41:00,
2013-02-21 02:46:00,43.9,39.4,30.23,North,3,3.0,5.0,84,0.00,,,0.00,0,WeatherHawk,2013-02-21 10:46:00,
2013-02-21 02:51:00,44.5,39.6,30.23,NW,306,5.0,8.0,83,0.00,,,0.00,0,WeatherHawk,2013-02-21 10:51:00,
2013-02-21 02:56:00,44.1,39.2,30.23,NE,38,0.0,8.0,83,0.00,,,0.00,0,WeatherHawk,2013-02-21 10:56:00,
2013-02-21 03:01:00,44.2,39.4,30.23,ESE,112,0.0,6.0,83,0.00,,,0.00,0,WeatherHawk,2013-02-21 11:01:00,
2013-02-21 03:06:00,44.5,40.0,30.24,South,191,2.0,6.0,84,0.00,,,0.00,0,WeatherHawk,2013-02-21 11:06:00,
2013-02-21 03:11:00,44.1,39.8,30.23,SE,143,2.0,5.0,85,0.00,,,0.00,0,WeatherHawk,2013-02-21 11:11:00,
2013-02-21 03:16:00,43.9,39.9,30.23,NE,44,4.0,4.0,86,0.00,,,0.00,0,WeatherHawk,2013-02-21 11:16:00,
2013-02-21 03:21:00,43.7,39.8,30.23,East,101,3.0,4.0,86,0.00,,,0.00,0,WeatherHawk,2013-02-21 11:21:00,
2013-02-21 03:26:00,42.9,39.3,30.23,WSW,247,0.0,4.0,87,0.00,,,0.00,0,WeatherHawk,2013-02-21 11:26:00,
2013-02-21 03:31:00,43.2,39.9,30.24,ENE,68,4.0,4.0,88,0.00,,,0.00,0,WeatherHawk,2013-02-21 11:31:00,
2013-02-21 03:37:00,43.1,39.8,30.23,NE,38,0.0,4.0,88,0.00,,,0.00,0,WeatherHawk,2013-02-21 11:37:00,
2013-02-21 03:42:00,42.9,39.6,30.23,South,186,1.0,4.0,88,0.00,,,0.00,0,WeatherHawk,2013-02-21 11:42:00,
2013-02-21 03:47:00,43.1,40.4,30.24,SE,127,0.0,4.0,90,0.00,,,0.00,0,WeatherHawk,2013-02-21 11:47:00,
2013-02-21 03:52:00,43.0,40.0,30.24,SE,145,2.0,3.0,89,0.00,,,0.00,0,WeatherHawk,2013-02-21 11:52:00,
2013-02-21 03:57:00,43.4,40.7,30.24,ESE,109,2.0,3.0,90,0.00,,,0.00,0,WeatherHawk,2013-02-21 11:57:00,
2013-02-21 04:02:00,42.5,39.5,30.24,North,350,0.0,4.0,89,0.00,,,0.00,1,WeatherHawk,2013-02-21 12:02:00,
2013-02-21 04:07:00,41.9,38.9,30.23,NE,47,1.0,4.0,89,0.00,,,0.00,0,WeatherHawk,2013-02-21 12:07:00,
2013-02-21 04:12:00,42.9,40.7,30.23,South,186,0.0,4.0,92,0.00,,,0.00,0,WeatherHawk,2013-02-21 12:12:00,
2013-02-21 04:17:00,42.9,40.5,30.23,ESE,122,2.0,5.0,91,0.00,,,0.00,0,WeatherHawk,2013-02-21 12:17:00,
2013-02-21 04:23:00,41.9,38.9,30.23,East,96,3.0,5.0,89,0.00,,,0.00,0,WeatherHawk,2013-02-21 12:23:00,
2013-02-21 04:28:00,43.4,40.7,30.23,ESE,111,2.0,5.0,90,0.00,,,0.00,0,WeatherHawk,2013-02-21 12:28:00,
2013-02-21 04:33:00,43.1,40.1,30.23,SSE,162,2.0,7.0,89,0.00,,,0.00,1,WeatherHawk,2013-02-21 12:33:00,
2013-02-21 04:38:00,43.0,40.3,30.24,ENE,77,3.0,7.0,90,0.00,,,0.00,0,WeatherHawk,2013-02-21 12:38:00,
2013-02-21 04:43:00,42.8,40.1,30.23,SE,141,2.0,5.0,90,0.00,,,0.00,0,WeatherHawk,2013-02-21 12:43:00,
2013-02-21 04:48:00,42.7,40.3,30.23,ENE,78,2.0,5.0,91,0.00,,,0.00,1,WeatherHawk,2013-02-21 12:48:00,
2013-02-21 04:53:00,42.7,38.5,30.23,East,94,0.0,4.0,85,0.00,,,0.00,0,WeatherHawk,2013-02-21 12:53:00,
2013-02-21 04:58:00,42.5,40.1,30.23,SE,124,3.0,4.0,91,0.00,,,0.00,0,WeatherHawk,2013-02-21 12:58:00,
2013-02-21 05:03:00,43.2,40.7,30.23,East,97,2.0,3.0,91,0.00,,,0.00,1,WeatherHawk,2013-02-21 13:03:00,
2013-02-21 05:08:00,42.8,40.3,30.24,East,89,3.0,4.0,91,0.00,,,0.00,1,WeatherHawk,2013-02-21 13:08:00,
2013-02-21 05:13:00,41.8,39.1,30.24,SSE,164,0.0,4.0,90,0.00,,,0.00,0,WeatherHawk,2013-02-21 13:13:00,
2013-02-21 05:18:00,42.7,40.9,30.24,NE,42,0.0,4.0,93,0.00,,,0.00,0,WeatherHawk,2013-02-21 13:18:00,
2013-02-21 05:24:00,42.3,40.1,30.23,NNW,337,0.0,4.0,92,0.00,,,0.00,0,WeatherHawk,2013-02-21 13:24:00,
2013-02-21 05:29:00,41.5,39.3,30.23,NE,46,0.0,4.0,92,0.00,,,0.00,0,WeatherHawk,2013-02-21 13:29:00,
2013-02-21 05:34:00,42.8,41.2,30.23,ENE,64,0.0,6.0,94,0.00,,,0.00,0,WeatherHawk,2013-02-21 13:34:00,
2013-02-21 05:39:00,41.3,39.5,30.23,ENE,76,0.0,6.0,93,0.00,,,0.00,1,WeatherHawk,2013-02-21 13:39:00,
2013-02-21 05:44:00,41.1,39.5,30.24,ENE,76,0.0,1.0,94,0.00,,,0.00,0,WeatherHawk,2013-02-21 13:44:00,
2013-02-21 05:49:00,41.2,39.9,30.24,ENE,76,0.0,1.0,95,0.00,,,0.00,0,WeatherHawk,2013-02-21 13:49:00,
2013-02-21 05:54:00,41.7,40.7,30.24,NE,34,0.0,1.0,96,0.00,,,0.00,0,WeatherHawk,2013-02-21 13:54:00,
2013-02-21 05:59:00,40.5,39.5,30.24,South,173,0.0,2.0,96,0.00,,,0.00,0,WeatherHawk,2013-02-21 13:59:00,
2013-02-21 06:04:00,41.2,40.4,30.24,ENE,61,0.0,3.0,97,0.00,,,0.00,0,WeatherHawk,2013-02-21 14:04:00,
2013-02-21 06:09:00,41.2,39.6,30.24,NE,36,1.0,4.0,94,0.00,,,0.00,0,WeatherHawk,2013-02-21 14:09:00,
2013-02-21 06:14:00,41.6,40.8,30.25,NNW,335,3.0,4.0,97,0.00,,,0.00,0,WeatherHawk,2013-02-21 14:14:00,
2013-02-21 06:19:00,41.3,40.2,30.24,NNE,24,0.0,4.0,96,0.00,,,0.00,1,WeatherHawk,2013-02-21 14:19:00,
2013-02-21 06:24:00,41.3,40.8,30.25,SSW,211,0.0,4.0,98,0.00,,,0.00,0,WeatherHawk,2013-02-21 14:24:00,
2013-02-21 06:29:00,40.6,39.6,30.24,West,259,0.0,4.0,96,0.00,,,0.00,0,WeatherHawk,2013-02-21 14:29:00,
2013-02-21 06:35:00,40.7,39.9,30.24,West,264,2.0,4.0,97,0.00,,,0.00,1,WeatherHawk,2013-02-21 14:35:00,
2013-02-21 06:40:00,40.3,39.5,30.24,NNW,338,0.0,3.0,97,0.00,,,0.00,0,WeatherHawk,2013-02-21 14:40:00,
2013-02-21 06:45:00,39.9,38.9,30.24,NNE,14,2.0,3.0,96,0.00,,,0.00,3,WeatherHawk,2013-02-21 14:45:00,
2013-02-21 06:50:00,40.4,39.6,30.25,NNW,337,0.0,3.0,97,0.00,,,0.00,4,WeatherHawk,2013-02-21 14:50:00,
2013-02-21 06:55:00,40.5,39.2,30.25,NNE,19,2.0,3.0,95,0.00,,,0.00,7,WeatherHawk,2013-02-21 14:55:00,
2013-02-21 07:00:00,39.6,38.6,30.25,NE,38,0.0,3.0,96,0.00,,,0.00,10,WeatherHawk,2013-02-21 15:00:00,
2013-02-21 07:05:00,39.2,38.1,30.24,NE,35,0.0,2.0,96,0.00,,,0.00,11,WeatherHawk,2013-02-21 15:05:00,
2013-02-21 07:10:00,39.1,35.5,30.25,NE,38,0.0,3.0,87,0.00,,,0.00,13,WeatherHawk,2013-02-21 15:10:00,
2013-02-21 07:15:00,40.4,40.2,30.25,NNW,348,0.0,3.0,99,0.00,,,0.00,17,WeatherHawk,2013-02-21 15:15:00,
2013-02-21 07:20:00,38.9,38.4,30.25,SSW,193,0.0,3.0,98,0.00,,,0.00,19,WeatherHawk,2013-02-21 15:20:00,
2013-02-21 07:25:00,39.3,38.8,30.25,NE,42,0.0,3.0,98,0.00,,,0.00,20,WeatherHawk,2013-02-21 15:25:00,
2013-02-21 07:30:00,40.2,39.9,30.25,NNE,20,2.0,3.0,99,0.00,,,0.00,52,WeatherHawk,2013-02-21 15:30:00,
2013-02-21 07:35:00,41.2,40.1,30.25,NNW,339,0.0,3.0,96,0.00,,,0.00,64,WeatherHawk,2013-02-21 15:35:00,
2013-02-21 07:41:00,42.5,40.3,30.26,NNE,33,0.0,3.0,92,0.00,,,0.00,113,WeatherHawk,2013-02-21 15:41:00,
2013-02-21 07:46:00,42.0,37.2,30.26,ENE,67,0.0,3.0,83,0.00,,,0.00,123,WeatherHawk,2013-02-21 15:46:00,
2013-02-21 07:51:00,43.6,38.2,30.25,SE,145,0.0,3.0,81,0.00,,,0.00,133,WeatherHawk,2013-02-21 15:51:00,
2013-02-21 07:56:00,50.1,43.8,30.25,SSE,160,0.0,3.0,79,0.00,,,0.00,147,WeatherHawk,2013-02-21 15:56:00,
2013-02-21 08:01:00,50.1,43.5,30.25,SE,143,0.0,0.0,78,0.00,,,0.00,161,WeatherHawk,2013-02-21 16:01:00,
2013-02-21 08:06:00,45.3,36.1,30.26,ESE,118,0.0,0.0,70,0.00,,,0.00,175,WeatherHawk,2013-02-21 16:06:00,
2013-02-21 08:11:00,47.0,37.0,30.26,ESE,110,0.0,3.0,68,0.00,,,0.00,189,WeatherHawk,2013-02-21 16:11:00,
2013-02-21 08:16:00,46.8,37.5,30.26,ENE,63,2.0,3.0,70,0.00,,,0.00,202,WeatherHawk,2013-02-21 16:16:00,
2013-02-21 08:21:00,45.5,33.3,30.26,NNE,29,2.0,3.0,62,0.00,,,0.00,218,WeatherHawk,2013-02-21 16:21:00,
2013-02-21 08:26:00,45.4,31.9,30.25,SE,132,2.0,3.0,59,0.00,,,0.00,232,WeatherHawk,2013-02-21 16:26:00,
2013-02-21 08:31:00,45.3,33.5,30.26,East,98,3.0,3.0,63,0.00,,,0.00,246,WeatherHawk,2013-02-21 16:31:00,
2013-02-21 08:36:00,45.8,31.4,30.26,ENE,76,2.0,3.0,57,0.00,,,0.00,263,WeatherHawk,2013-02-21 16:36:00,
2013-02-21 08:41:00,46.4,31.1,30.25,East,86,3.0,4.0,55,0.00,,,0.00,277,WeatherHawk,2013-02-21 16:41:00,
2013-02-21 08:46:00,48.0,32.2,30.26,NE,37,2.0,4.0,54,0.00,,,0.00,291,WeatherHawk,2013-02-21 16:46:00,
2013-02-21 08:51:00,49.3,31.9,30.26,NE,56,1.0,4.0,51,0.00,,,0.00,305,WeatherHawk,2013-02-21 16:51:00,
2013-02-21 08:56:00,50.0,33.6,30.26,East,83,2.0,4.0,53,0.00,,,0.00,320,WeatherHawk,2013-02-21 16:56:00,
2013-02-21 09:01:00,50.4,32.0,30.27,SW,226,0.0,4.0,49,0.00,,,0.00,334,WeatherHawk,2013-02-21 17:01:00,
2013-02-21 09:07:00,50.7,31.2,30.27,SSW,199,3.0,4.0,47,0.00,,,0.00,347,WeatherHawk,2013-02-21 17:07:00,
2013-02-21 09:12:00,50.3,30.3,30.26,SE,133,2.0,4.0,46,0.00,,,0.00,362,WeatherHawk,2013-02-21 17:12:00,
2013-02-21 09:17:00,53.2,30.7,30.25,SW,231,3.0,5.0,42,0.00,,,0.00,375,WeatherHawk,2013-02-21 17:17:00,
2013-02-21 09:22:00,55.4,31.4,30.25,SW,233,1.0,5.0,40,0.00,,,0.00,387,WeatherHawk,2013-02-21 17:22:00,
2013-02-21 09:27:00,55.9,31.3,30.25,SSW,201,4.0,7.0,39,0.00,,,0.00,402,WeatherHawk,2013-02-21 17:27:00,
2013-02-21 09:32:00,51.5,28.0,30.25,SSW,210,5.0,8.0,40,0.00,,,0.00,412,WeatherHawk,2013-02-21 17:32:00,
2013-02-21 09:37:00,53.8,31.2,30.26,West,271,5.0,8.0,42,0.00,,,0.00,425,WeatherHawk,2013-02-21 17:37:00,
2013-02-21 09:42:00,53.5,32.1,30.26,SSW,202,7.0,8.0,44,0.00,,,0.00,432,WeatherHawk,2013-02-21 17:42:00,
2013-02-21 09:47:00,54.7,34.3,30.26,SW,226,3.0,9.0,46,0.00,,,0.00,448,WeatherHawk,2013-02-21 17:47:00,
2013-02-21 09:52:00,50.2,29.1,30.26,WSW,250,7.0,9.0,44,0.00,,,0.00,457,WeatherHawk,2013-02-21 17:52:00,
2013-02-21 09:57:00,53.1,31.8,30.26,WSW,253,5.0,9.0,44,0.00,,,0.00,471,WeatherHawk,2013-02-21 17:57:00,
2013-02-21 10:02:00,53.0,30.5,30.26,SW,227,5.0,8.0,42,0.00,,,0.00,485,WeatherHawk,2013-02-21 18:02:00,
2013-02-21 10:08:00,55.0,32.9,30.26,East,100,1.0,8.0,43,0.00,,,0.00,493,WeatherHawk,2013-02-21 18:08:00,
2013-02-21 10:13:00,53.6,26.7,30.26,NE,44,2.0,7.0,35,0.00,,,0.00,508,WeatherHawk,2013-02-21 18:13:00,
2013-02-21 10:18:00,54.2,23.5,30.27,East,96,2.0,10.0,30,0.00,,,0.00,506,WeatherHawk,2013-02-21 18:18:00,
2013-02-21 10:23:00,55.8,25.6,30.26,North,1,2.0,11.0,31,0.00,,,0.00,518,WeatherHawk,2013-02-21 18:23:00,
2013-02-21 10:28:00,55.6,24.6,30.26,NE,43,5.0,11.0,30,0.00,,,0.00,532,WeatherHawk,2013-02-21 18:28:00,
2013-02-21 10:33:00,55.9,25.8,30.26,NNE,23,7.0,9.0,31,0.00,,,0.00,545,WeatherHawk,2013-02-21 18:33:00,
2013-02-21 10:38:00,53.7,19.6,30.26,NNE,29,4.0,9.0,26,0.00,,,0.00,552,WeatherHawk,2013-02-21 18:38:00,
2013-02-21 10:43:00,53.3,20.2,30.26,South,174,5.0,8.0,27,0.00,,,0.00,558,WeatherHawk,2013-02-21 18:43:00,
2013-02-21 10:48:00,55.4,22.0,30.26,NW,315,4.0,8.0,27,0.00,,,0.00,570,WeatherHawk,2013-02-21 18:48:00,
2013-02-21 10:54:00,51.4,17.7,30.26,SE,136,8.0,8.0,26,0.00,,,0.00,575,WeatherHawk,2013-02-21 18:54:00,
2013-02-21 10:59:00,55.4,21.9,30.26,NE,53,4.0,10.0,27,0.00,,,0.00,584,WeatherHawk,2013-02-21 18:59:00,
2013-02-21 11:04:00,53.4,19.4,30.26,ESE,108,6.0,10.0,26,0.00,,,0.00,594,WeatherHawk,2013-02-21 19:04:00,
2013-02-21 11:09:00,53.7,19.6,30.27,NE,35,9.0,13.0,26,0.00,,,0.00,590,WeatherHawk,2013-02-21 19:09:00,
2013-02-21 11:14:00,55.3,22.8,30.27,NE,54,4.0,13.0,28,0.00,,,0.00,606,WeatherHawk,2013-02-21 19:14:00,
2013-02-21 11:19:00,59.3,27.9,30.25,South,190,4.0,11.0,30,0.00,,,0.00,611,WeatherHawk,2013-02-21 19:19:00,
2013-02-21 11:24:00,56.1,22.6,30.26,ENE,75,6.0,10.0,27,0.00,,,0.00,617,WeatherHawk,2013-02-21 19:24:00,
2013-02-21 11:29:00,56.4,22.0,30.26,NE,38,4.0,8.0,26,0.00,,,0.00,622,WeatherHawk,2013-02-21 19:29:00,
2013-02-21 11:34:00,55.3,20.1,30.26,ENE,76,4.0,11.0,25,0.00,,,0.00,626,WeatherHawk,2013-02-21 19:34:00,
2013-02-21 11:39:00,57.6,23.9,30.26,East,99,0.0,11.0,27,0.00,,,0.00,630,WeatherHawk,2013-02-21 19:39:00,
2013-02-21 11:44:00,53.6,25.2,30.25,West,278,8.0,10.0,33,0.00,,,0.00,635,WeatherHawk,2013-02-21 19:44:00,
2013-02-21 11:49:00,53.9,26.2,30.26,SW,229,7.0,11.0,34,0.00,,,0.00,635,WeatherHawk,2013-02-21 19:49:00,
2013-02-21 11:54:00,56.4,26.9,30.26,SE,142,4.0,11.0,32,0.00,,,0.00,638,WeatherHawk,2013-02-21 19:54:00,
2013-02-21 11:59:00,55.5,26.2,30.25,SW,228,3.0,9.0,32,0.00,,,0.00,642,WeatherHawk,2013-02-21 19:59:00,
2013-02-21 12:04:00,57.1,26.8,30.25,SE,145,2.0,8.0,31,0.00,,,0.00,648,WeatherHawk,2013-02-21 20:04:00,
2013-02-21 12:09:00,55.3,27.4,30.26,North,0,1.0,7.0,34,0.00,,,0.00,643,WeatherHawk,2013-02-21 20:09:00,
2013-02-21 12:14:00,55.7,26.3,30.24,SSE,157,2.0,10.0,32,0.00,,,0.00,648,WeatherHawk,2013-02-21 20:14:00,
2013-02-21 12:19:00,55.6,25.4,30.25,WSW,241,6.0,10.0,31,0.00,,,0.00,649,WeatherHawk,2013-02-21 20:19:00,
2013-02-21 12:24:00,56.3,27.5,30.25,SSW,204,8.0,12.0,33,0.00,,,0.00,653,WeatherHawk,2013-02-21 20:24:00,
2013-02-21 12:30:00,53.3,26.4,30.25,SW,222,7.0,12.0,35,0.00,,,0.00,653,WeatherHawk,2013-02-21 20:30:00,
2013-02-21 12:35:00,55.4,28.9,30.25,WSW,250,6.0,12.0,36,0.00,,,0.00,654,WeatherHawk,2013-02-21 20:35:00,
2013-02-21 12:40:00,57.8,29.6,30.25,West,259,2.0,12.0,34,0.00,,,0.00,653,WeatherHawk,2013-02-21 20:40:00,
2013-02-21 12:45:00,54.8,27.0,30.25,WSW,238,7.0,8.0,34,0.00,,,0.00,655,WeatherHawk,2013-02-21 20:45:00,
2013-02-21 12:50:00,54.6,30.2,30.25,SSW,204,6.0,9.0,39,0.00,,,0.00,644,WeatherHawk,2013-02-21 20:50:00,
2013-02-21 12:55:00,50.9,23.6,30.24,SSW,204,10.0,11.0,34,0.00,,,0.00,639,WeatherHawk,2013-02-21 20:55:00,
2013-02-21 13:00:00,55.2,28.8,30.24,South,177,4.0,11.0,36,0.00,,,0.00,625,WeatherHawk,2013-02-21 21:00:00,
2013-02-21 13:05:00,53.9,25.5,30.24,SSW,207,10.0,10.0,33,0.00,,,0.00,639,WeatherHawk,2013-02-21 21:05:00,
2013-02-21 13:10:00,55.2,29.4,30.24,SW,236,6.0,11.0,37,0.00,,,0.00,637,WeatherHawk,2013-02-21 21:10:00,
2013-02-21 13:15:00,56.4,27.7,30.24,SE,130,7.0,11.0,33,0.00,,,0.00,642,WeatherHawk,2013-02-21 21:15:00,
2013-02-21 13:20:00,55.6,27.7,30.24,WSW,249,4.0,9.0,34,0.00,,,0.00,637,WeatherHawk,2013-02-21 21:20:00,
2013-02-21 13:25:00,54.5,26.7,30.24,WNW,298,8.0,11.0,34,0.00,,,0.00,629,WeatherHawk,2013-02-21 21:25:00,
2013-02-21 13:30:00,55.1,27.9,30.24,SSW,211,8.0,13.0,35,0.00,,,0.00,623,WeatherHawk,2013-02-21 21:30:00,
2013-02-21 13:35:00,53.5,26.5,30.24,WSW,242,7.0,13.0,35,0.00,,,0.00,619,WeatherHawk,2013-02-21 21:35:00,
2013-02-21 13:40:00,55.2,24.3,30.24,WSW,243,7.0,13.0,30,0.00,,,0.00,623,WeatherHawk,2013-02-21 21:40:00,
2013-02-21 13:46:00,54.4,28.0,30.24,WSW,245,8.0,11.0,36,0.00,,,0.00,581,WeatherHawk,2013-02-21 21:46:00,
2013-02-21 13:51:00,52.8,25.9,30.24,SW,214,7.0,11.0,35,0.00,,,0.00,594,WeatherHawk,2013-02-21 21:51:00,
2013-02-21 13:56:00,53.6,28.6,30.25,SSW,206,10.0,12.0,38,0.00,,,0.00,580,WeatherHawk,2013-02-21 21:56:00,
2013-02-21 14:01:00,53.1,26.8,30.24,WSW,247,6.0,12.0,36,0.00,,,0.00,575,WeatherHawk,2013-02-21 22:01:00,
2013-02-21 14:06:00,53.8,26.8,30.24,SSW,206,7.0,12.0,35,0.00,,,0.00,559,WeatherHawk,2013-02-21 22:06:00,
2013-02-21 14:11:00,55.4,30.9,30.24,WSW,255,2.0,14.0,39,0.00,,,0.00,549,WeatherHawk,2013-02-21 22:11:00,
2013-02-21 14:16:00,56.4,31.1,30.24,SSW,201,5.0,12.0,38,0.00,,,0.00,549,WeatherHawk,2013-02-21 22:16:00,
2013-02-21 14:21:00,53.0,26.7,30.24,WSW,257,12.0,12.0,36,0.00,,,0.00,539,WeatherHawk,2013-02-21 22:21:00,
2013-02-21 14:26:00,56.2,23.6,30.25,SW,215,3.0,12.0,28,0.00,,,0.00,535,WeatherHawk,2013-02-21 22:26:00,
2013-02-21 14:31:00,52.1,23.9,30.24,SW,230,11.0,12.0,33,0.00,,,0.00,523,WeatherHawk,2013-02-21 22:31:00,
2013-02-21 14:36:00,53.7,25.3,30.24,WSW,239,5.0,11.0,33,0.00,,,0.00,518,WeatherHawk,2013-02-21 22:36:00,
2013-02-21 14:41:00,53.4,25.8,30.24,SW,236,5.0,11.0,34,0.00,,,0.00,510,WeatherHawk,2013-02-21 22:41:00,
2013-02-21 14:46:00,53.6,24.4,30.24,West,261,4.0,11.0,32,0.00,,,0.00,502,WeatherHawk,2013-02-21 22:46:00,
2013-02-21 14:51:00,55.0,26.5,30.24,SSW,192,10.0,10.0,33,0.00,,,0.00,495,WeatherHawk,2013-02-21 22:51:00,
2013-02-21 14:56:00,53.8,25.4,30.24,SW,225,5.0,10.0,33,0.00,,,0.00,482,WeatherHawk,2013-02-21 22:56:00,
2013-02-21 15:01:00,52.5,24.9,30.24,WSW,255,5.0,10.0,34,0.00,,,0.00,471,WeatherHawk,2013-02-21 23:01:00,
2013-02-21 15:07:00,53.1,24.7,30.24,SSW,204,8.0,11.0,33,0.00,,,0.00,453,WeatherHawk,2013-02-21 23:07:00,
2013-02-21 15:12:00,53.3,26.4,30.24,West,273,6.0,11.0,35,0.00,,,0.00,447,WeatherHawk,2013-02-21 23:12:00,
2013-02-21 15:17:00,54.2,24.2,30.24,SW,230,5.0,11.0,31,0.00,,,0.00,436,WeatherHawk,2013-02-21 23:17:00,
2013-02-21 15:22:00,54.6,26.8,30.24,West,269,5.0,11.0,34,0.00,,,0.00,427,WeatherHawk,2013-02-21 23:22:00,
2013-02-21 15:27:00,54.7,27.6,30.24,SSW,213,0.0,11.0,35,0.00,,,0.00,413,WeatherHawk,2013-02-21 23:27:00,
2013-02-21 15:32:00,54.6,29.5,30.24,SSW,213,7.0,9.0,38,0.00,,,0.00,401,WeatherHawk,2013-02-21 23:32:00,
2013-02-21 15:37:00,53.1,26.9,30.24,West,259,6.0,8.0,36,0.00,,,0.00,387,WeatherHawk,2013-02-21 23:37:00,
2013-02-21 15:42:00,53.3,27.7,30.24,South,179,3.0,8.0,37,0.00,,,0.00,375,WeatherHawk,2013-02-21 23:42:00,
2013-02-21 15:47:00,52.7,28.4,30.24,SW,224,6.0,7.0,39,0.00,,,0.00,346,WeatherHawk,2013-02-21 23:47:00,
2013-02-21 15:52:00,52.3,28.7,30.25,SW,214,4.0,8.0,40,0.00,,,0.00,335,WeatherHawk,2013-02-21 23:52:00,
2013-02-21 15:57:00,53.1,30.1,30.25,West,271,6.0,8.0,41,0.00,,,0.00,329,WeatherHawk,2013-02-21 23:57:00,
2013-02-21 16:02:00,51.5,29.2,30.25,West,268,5.0,8.0,42,0.00,,,0.00,302,WeatherHawk,2013-02-22 00:02:00,
2013-02-21 16:08:00,51.7,30.5,30.24,WSW,240,5.0,9.0,44,0.00,,,0.00,284,WeatherHawk,2013-02-22 00:08:00,
2013-02-21 16:13:00,51.8,31.2,30.25,West,269,5.0,9.0,45,0.00,,,0.00,265,WeatherHawk,2013-02-22 00:13:00,
2013-02-21 16:18:00,51.0,30.4,30.24,SSW,211,6.0,7.0,45,0.00,,,0.00,248,WeatherHawk,2013-02-22 00:18:00,
2013-02-21 16:23:00,51.4,32.9,30.25,SW,229,5.0,7.0,49,0.00,,,0.00,236,WeatherHawk,2013-02-22 00:23:00,
2013-02-21 16:28:00,50.1,32.7,30.24,SW,227,6.0,8.0,51,0.00,,,0.00,226,WeatherHawk,2013-02-22 00:28:00,
2013-02-21 16:33:00,50.9,34.8,30.25,SSW,201,4.0,8.0,54,0.00,,,0.00,198,WeatherHawk,2013-02-22 00:33:00,
2013-02-21 16:38:00,50.3,35.2,30.25,SW,234,4.0,7.0,56,0.00,,,0.00,193,WeatherHawk,2013-02-22 00:38:00,
2013-02-21 16:43:00,50.6,36.8,30.25,SSW,200,3.0,8.0,59,0.00,,,0.00,169,WeatherHawk,2013-02-22 00:43:00,
2013-02-21 16:48:00,49.9,36.6,30.25,WSW,246,3.0,8.0,60,0.00,,,0.00,158,WeatherHawk,2013-02-22 00:48:00,
2013-02-21 16:53:00,50.0,37.1,30.25,WSW,253,1.0,6.0,61,0.00,,,0.00,151,WeatherHawk,2013-02-22 00:53:00,
2013-02-21 16:58:00,49.8,36.9,30.25,WSW,237,0.0,6.0,61,0.00,,,0.00,118,WeatherHawk,2013-02-22 00:58:00,
2013-02-21 17:03:00,49.1,36.3,30.25,SSW,196,3.0,6.0,61,0.00,,,0.00,135,WeatherHawk,2013-02-22 01:03:00,
2013-02-21 17:08:00,48.7,35.9,30.26,WSW,240,5.0,5.0,61,0.00,,,0.00,59,WeatherHawk,2013-02-22 01:08:00,
2013-02-21 17:13:00,48.2,35.3,30.25,WSW,241,4.0,6.0,61,0.00,,,0.00,73,WeatherHawk,2013-02-22 01:13:00,
2013-02-21 17:18:00,47.7,35.7,30.26,SW,225,2.0,7.0,63,0.00,,,0.00,53,WeatherHawk,2013-02-22 01:18:00,
2013-02-21 17:23:00,47.0,35.8,30.26,SW,224,1.0,7.0,65,0.00,,,0.00,26,WeatherHawk,2013-02-22 01:23:00,
2013-02-21 17:28:00,46.5,36.2,30.27,SW,218,0.0,5.0,67,0.00,,,0.00,21,WeatherHawk,2013-02-22 01:28:00,
2013-02-21 17:33:00,46.5,37.3,30.27,WSW,245,4.0,5.0,70,0.00,,,0.00,16,WeatherHawk,2013-02-22 01:33:00,
2013-02-21 17:38:00,45.8,37.7,30.27,West,272,4.0,5.0,73,0.00,,,0.00,10,WeatherHawk,2013-02-22 01:38:00,
2013-02-21 17:43:00,45.5,38.3,30.28,WSW,247,1.0,5.0,76,0.00,,,0.00,10,WeatherHawk,2013-02-22 01:43:00,
2013-02-21 17:49:00,45.4,38.9,30.28,WSW,247,3.0,4.0,78,0.00,,,0.00,7,WeatherHawk,2013-02-22 01:49:00,
2013-02-21 17:54:00,44.7,38.9,30.28,West,279,0.0,3.0,80,0.00,,,0.00,4,WeatherHawk,2013-02-22 01:54:00,
2013-02-21 17:59:00,44.2,39.1,30.27,NW,312,0.0,3.0,82,0.00,,,0.00,3,WeatherHawk,2013-02-22 01:59:00,
2013-02-21 18:04:00,44.8,40.5,30.27,North,351,0.0,2.0,85,0.00,,,0.00,1,WeatherHawk,2013-02-22 02:04:00,
2013-02-21 18:09:00,43.9,39.7,30.28,North,351,0.0,0.0,85,0.00,,,0.00,0,WeatherHawk,2013-02-22 02:09:00,
2013-02-21 18:14:00,43.6,40.3,30.28,North,351,0.0,0.0,88,0.00,,,0.00,1,WeatherHawk,2013-02-22 02:14:00,
2013-02-21 18:19:00,44.0,41.3,30.29,North,351,0.0,0.0,90,0.00,,,0.00,0,WeatherHawk,2013-02-22 02:19:00,
2013-02-21 18:24:00,43.9,41.5,30.28,North,351,0.0,0.0,91,0.00,,,0.00,0,WeatherHawk,2013-02-22 02:24:00,
2013-02-21 18:29:00,43.9,41.4,30.28,NNW,345,0.0,2.0,91,0.00,,,0.00,0,WeatherHawk,2013-02-22 02:29:00,
2013-02-21 18:34:00,43.9,40.9,30.27,North,350,0.0,2.0,89,0.00,,,0.00,0,WeatherHawk,2013-02-22 02:34:00,
2013-02-21 18:39:00,43.0,40.0,30.28,NNE,19,3.0,3.0,89,0.00,,,0.00,0,WeatherHawk,2013-02-22 02:39:00,
2013-02-21 18:44:00,42.2,39.2,30.28,North,0,4.0,4.0,89,0.00,,,0.00,0,WeatherHawk,2013-02-22 02:44:00,
2013-02-21 18:49:00,42.0,39.6,30.28,NE,39,3.0,4.0,91,0.00,,,0.00,0,WeatherHawk,2013-02-22 02:49:00,
2013-02-21 18:54:00,42.3,39.6,30.28,NNW,346,4.0,5.0,90,0.00,,,0.00,1,WeatherHawk,2013-02-22 02:54:00,
2013-02-21 18:59:00,42.3,39.5,30.29,NNW,346,4.0,5.0,90,0.00,,,0.00,0,WeatherHawk,2013-02-22 02:59:00,
2013-02-21 19:04:00,42.5,39.2,30.29,NNW,344,3.0,4.0,88,0.00,,,0.00,0,WeatherHawk,2013-02-22 03:04:00,
2013-02-21 19:09:00,42.1,38.8,30.30,NNW,343,4.0,4.0,88,0.00,,,0.00,0,WeatherHawk,2013-02-22 03:09:00,
2013-02-21 19:14:00,41.7,38.1,30.29,North,351,3.0,4.0,87,0.00,,,0.00,0,WeatherHawk,2013-02-22 03:14:00,
2013-02-21 19:20:00,41.8,38.2,30.29,NNW,335,2.0,4.0,87,0.00,,,0.00,0,WeatherHawk,2013-02-22 03:20:00,
2013-02-21 19:25:00,41.4,37.5,30.29,North,351,2.0,4.0,86,0.00,,,0.00,0,WeatherHawk,2013-02-22 03:25:00,
2013-02-21 19:30:00,40.8,36.9,30.29,North,349,0.0,4.0,86,0.00,,,0.00,0,WeatherHawk,2013-02-22 03:30:00,
2013-02-21 19:35:00,39.7,36.1,30.28,NW,308,0.0,3.0,87,0.00,,,0.00,0,WeatherHawk,2013-02-22 03:35:00,
2013-02-21 19:40:00,40.9,38.5,30.30,NW,308,0.0,0.0,91,0.00,,,0.00,0,WeatherHawk,2013-02-22 03:40:00,
2013-02-21 19:45:00,40.0,37.3,30.31,NW,312,2.0,4.0,90,0.00,,,0.00,0,WeatherHawk,2013-02-22 03:45:00,
2013-02-21 19:50:00,40.5,37.2,30.30,NNE,21,4.0,6.0,88,0.00,,,0.00,1,WeatherHawk,2013-02-22 03:50:00,
2013-02-21 19:55:00,39.3,35.5,30.31,NNE,20,2.0,6.0,86,0.00,,,0.00,0,WeatherHawk,2013-02-22 03:55:00,
2013-02-21 20:01:00,39.8,35.0,30.30,West,279,0.0,6.0,83,0.00,,,0.00,1,WeatherHawk,2013-02-22 04:01:00,
2013-02-21 20:06:00,39.9,36.3,30.30,WSW,248,0.0,4.0,87,0.00,,,0.00,0,WeatherHawk,2013-02-22 04:06:00,
2013-02-21 20:11:00,39.5,36.2,30.30,WSW,248,0.0,0.0,88,0.00,,,0.00,0,WeatherHawk,2013-02-22 04:11:00,
2013-02-21 20:16:00,40.4,37.7,30.30,WNW,290,0.0,1.0,90,0.00,,,0.00,1,WeatherHawk,2013-02-22 04:16:00,
2013-02-21 20:21:00,38.8,35.5,30.32,WNW,289,0.0,1.0,88,0.00,,,0.00,0,WeatherHawk,2013-02-22 04:21:00,
2013-02-21 20:26:00,38.9,36.5,30.30,WNW,282,0.0,0.0,91,0.00,,,0.00,1,WeatherHawk,2013-02-22 04:26:00,
2013-02-21 20:31:00,37.4,35.6,30.30,WNW,282,0.0,0.0,93,0.00,,,0.00,1,WeatherHawk,2013-02-22 04:31:00,
2013-02-21 20:36:00,39.2,37.6,30.31,WNW,282,0.0,0.0,94,0.00,,,0.00,0,WeatherHawk,2013-02-22 04:36:00,
2013-02-21 20:41:00,38.5,35.5,30.30,NE,39,0.0,1.0,89,0.00,,,0.00,0,WeatherHawk,2013-02-22 04:41:00,
2013-02-21 20:47:00,38.2,35.5,30.30,West,270,0.0,1.0,90,0.00,,,0.00,0,WeatherHawk,2013-02-22 04:47:00,
2013-02-21 20:52:00,38.1,35.7,30.30,North,0,0.0,2.0,91,0.00,,,0.00,1,WeatherHawk,2013-02-22 04:52:00,
2013-02-21 20:57:00,38.4,36.0,30.32,WNW,293,0.0,2.0,91,0.00,,,0.00,0,WeatherHawk,2013-02-22 04:57:00,
2013-02-21 21:00:00,39.3,37.4,30.31,WNW,293,0.0,2.0,93,0.00,,,0.00,1,WeatherHawk,2013-02-22 05:00:00,
2013-02-21 21:05:00,39.3,36.6,30.32,WNW,294,0.0,0.0,90,0.00,,,0.00,0,WeatherHawk,2013-02-22 05:05:00,
2013-02-21 21:10:00,39.5,35.6,30.32,North,351,2.0,0.0,86,0.00,,,0.00,0,WeatherHawk,2013-02-22 05:10:00,
2013-02-21 21:15:00,39.2,33.3,30.30,NNW,338,0.0,3.0,79,0.00,,,0.00,0,WeatherHawk,2013-02-22 05:15:00,
2013-02-21 21:20:00,39.2,34.5,30.31,NW,325,0.0,3.0,83,0.00,,,0.00,0,WeatherHawk,2013-02-22 05:20:00,
2013-02-21 21:25:00,38.8,33.5,30.32,NNW,343,1.0,2.0,81,0.00,,,0.00,0,WeatherHawk,2013-02-22 05:25:00,
2013-02-21 21:30:00,38.2,31.3,30.33,North,0,0.0,3.0,76,0.00,,,0.00,0,WeatherHawk,2013-02-22 05:30:00,
2013-02-21 21:35:00,37.9,32.6,30.33,NW,310,0.0,3.0,81,0.00,,,0.00,0,WeatherHawk,2013-02-22 05:35:00,
2013-02-21 21:41:00,38.8,34.1,30.32,North,3,0.0,0.0,83,0.00,,,0.00,0,WeatherHawk,2013-02-22 05:41:00,
2013-02-21 21:46:00,39.1,34.0,30.32,NNE,26,0.0,2.0,82,0.00,,,0.00,0,WeatherHawk,2013-02-22 05:46:00,
2013-02-21 21:51:00,37.2,30.4,30.32,NNE,19,2.0,3.0,76,0.00,,,0.00,1,WeatherHawk,2013-02-22 05:51:00,
2013-02-21 21:56:00,37.6,30.5,30.33,NNE,27,3.0,3.0,75,0.00,,,0.00,1,WeatherHawk,2013-02-22 05:56:00,
2013-02-21 22:01:00,39.4,31.8,30.32,NNE,14,4.0,5.0,74,0.00,,,0.00,0,WeatherHawk,2013-02-22 06:01:00,
2013-02-21 22:06:00,38.2,31.0,30.32,WSW,258,0.0,5.0,75,0.00,,,0.00,1,WeatherHawk,2013-02-22 06:06:00,
2013-02-21 22:12:00,38.5,32.6,30.32,WSW,257,0.0,4.0,79,0.00,,,0.00,0,WeatherHawk,2013-02-22 06:12:00,
2013-02-21 22:17:00,38.4,32.5,30.33,WSW,257,0.0,0.0,79,0.00,,,0.00,0,WeatherHawk,2013-02-22 06:17:00,
2013-02-21 22:22:00,38.0,32.4,30.33,WSW,258,0.0,0.0,80,0.00,,,0.00,0,WeatherHawk,2013-02-22 06:22:00,
2013-02-21 22:27:00,38.1,33.1,30.34,WSW,258,0.0,0.0,82,0.00,,,0.00,0,WeatherHawk,2013-02-22 06:27:00,
2013-02-21 22:32:00,38.8,32.8,30.32,NNE,21,2.0,3.0,79,0.00,,,0.00,0,WeatherHawk,2013-02-22 06:32:00,
2013-02-21 22:37:00,36.2,29.4,30.32,WSW,237,0.0,3.0,76,0.00,,,0.00,0,WeatherHawk,2013-02-22 06:37:00,
2013-02-21 22:42:00,39.0,32.5,30.32,North,3,2.0,3.0,77,0.00,,,0.00,0,WeatherHawk,2013-02-22 06:42:00,
2013-02-21 22:47:00,37.9,31.0,30.32,North,2,0.0,3.0,76,0.00,,,0.00,0,WeatherHawk,2013-02-22 06:47:00,
2013-02-21 22:52:00,37.2,31.3,30.32,WNW,301,0.0,2.0,79,0.00,,,0.00,0,WeatherHawk,2013-02-22 06:52:00,
2013-02-21 22:57:00,38.2,33.2,30.33,WNW,301,0.0,0.0,82,0.00,,,0.00,0,WeatherHawk,2013-02-22 06:57:00,
2013-02-21 23:02:00,37.9,32.0,30.34,NNW,342,0.0,0.0,79,0.00,,,0.00,0,WeatherHawk,2013-02-22 07:02:00,
2013-02-21 23:07:00,39.1,32.5,30.33,NNE,27,1.0,0.0,77,0.00,,,0.00,0,WeatherHawk,2013-02-22 07:07:00,
2013-02-21 23:12:00,37.3,31.1,30.31,NNE,28,1.0,3.0,78,0.00,,,0.00,0,WeatherHawk,2013-02-22 07:12:00,
2013-02-21 23:17:00,38.1,31.2,30.32,NE,38,0.0,3.0,76,0.00,,,0.00,0,WeatherHawk,2013-02-22 07:17:00,
2013-02-21 23:22:00,37.0,31.1,30.33,West,275,0.0,3.0,79,0.00,,,0.00,0,WeatherHawk,2013-02-22 07:22:00,
2013-02-21 23:27:00,37.8,32.5,30.33,West,273,0.0,3.0,81,0.00,,,0.00,0,WeatherHawk,2013-02-22 07:27:00,
2013-02-21 23:32:00,38.1,33.1,30.33,NNE,32,0.0,0.0,82,0.00,,,0.00,0,WeatherHawk,2013-02-22 07:32:00,
2013-02-21 23:37:00,40.3,35.0,30.33,North,11,0.0,0.0,81,0.00,,,0.00,0,WeatherHawk,2013-02-22 07:37:00,
2013-02-21 23:42:00,35.9,30.7,30.33,NE,35,4.0,4.0,81,0.00,,,0.00,0,WeatherHawk,2013-02-22 07:42:00,
2013-02-21 23:48:00,38.5,34.1,30.32,North,0,0.0,4.0,84,0.00,,,0.00,0,WeatherHawk,2013-02-22 07:48:00,
2013-02-21 23:53:00,38.2,32.9,30.34,NNE,13,0.0,4.0,81,0.00,,,0.00,0,WeatherHawk,2013-02-22 07:53:00,
2013-02-21 23:58:00,37.2,32.2,30.33,WSW,257,0.0,2.0,82,0.00,,,0.00,0,WeatherHawk,2013-02-22 07:58:00,